Tracking 34352 objects as of 8-Jun-2026
HD Live streaming from Space Station
objects crossing your sky now

STARLINK-31742

Track STARLINK-31742 now!
10-day predictions


NORAD ID: 59499
Int'l Code: 2024-071R
Perigee: 489.1 km
Apogee: 491.3 km
Inclination: 43.0 °
Period: 94.3 minutes
Semi major axis: 6861 km
RCS: Unknown
Launch date: April 13, 2024
Source: United States (US)
Launch site: AIR FORCE EASTERN TEST RANGE (AFETR)
Your satellite tracking list
Your tracking list is empty




NASA's NSSDC Master Catalog

Two Line Element Set (TLE):
1 59499U 24071R   26158.37097610  .00000418  00000-0  24735-4 0  9993
2 59499  43.0001 193.0548 0001611 267.4152  92.6515 15.27577772121925
Source of the keplerian elements: AFSPC